Wind_Speed
12 13 13 13 13 13 13 13 13 13 12 12 12 11 11 11 10 10 10 9 9 8 8 8 8 8 9 9 9 9 10 11 11 11 11 11 12 11 11 12 12 12 12 13
13 13 13 13 14 14 13 13 14 14 14 13 12 12 11 12 11 10 10 9 9 9 8 9 9 9 9 10 10 10 11 12 12 12 12 12 12 12 13 13 13 13 14 14
13 13 13 13 14 14 14 14 14 14 14 13 13 12 12 12 12 11 11 10 10 9 9 10 10 10 10 10 11 11 12 13 13 13 13 13 13 14 14 14 14 14 14 14
12 12 13 13 13 13 14 14 13 13 14 13 14 13 12 12 12 12 12 11 10 11 11 11 11 11 12 12 12 12 13 14 14 14 15 14 14 14 15 15 15 15 16 15
12 11 12 12 12 13 13 14 14 14 14 14 13 14 12 13 12 12 12 12 12 12 11 12 12 13 13 13 13 13 14 14 15 15 16 16 15 15 16 16 16 16 17 16
11 12 12 11 11 12 13 14 14 14 15 15 14 15 13 13 13 12 12 12 12 12 12 13 13 13 13 13 14 14 15 15 15 16 16 16 16 16 16 16 16 17 17 16
11 11 11 12 12 13 13 14 14 14 15 15 14 16 14 13 13 13 13 13 12 12 13 14 14 14 14 14 15 15 15 16 17 17 17 17 17 17 16 16 17 17 17 17
11 11 11 12 11 12 12 14 15 15 15 15 15 16 15 14 13 13 13 14 14 14 15 15 15 15 15 16 16 16 16 17 18 18 18 18 17 16 17 17 17 17 17 17
11 11 11 11 12 12 13 14 15 16 16 16 16 16 15 15 14 14 14 14 15 15 15 16 16 17 17 17 17 18 17 18 18 18 18 18 18 18 18 18 18 18 19 18
11 12 12 12 12 13 13 14 15 16 17 17 16 15 14 15 15 14 14 14 16 16 16 16 17 17 17 18 18 19 18 18 18 18 18 18 18 18 18 19 19 19 19 19
12 12 13 13 13 13 14 14 15 17 18 19 18 16 15 15 15 15 15 15 16 17 17 17 18 18 18 18 18 19 18 18 18 18 18 19 19 19 19 20 20 20 20 20
12 13 14 14 14 14 15 15 16 17 18 19 20 17 15 16 16 16 16 17 17 17 17 18 18 19 19 19 19 18 19 19 19 19 19 20 20 20 20 20 20 20 20 21
13 14 15 15 16 15 16 16 18 18 18 18 19 17 17 17 17 17 18 17 17 18 18 18 19 19 19 19 19 19 19 20 20 20 20 21 21 21 21 21 21 20 21 21
15 15 16 16 16 16 17 17 18 19 18 18 18 17 18 18 18 18 18 18 17 19 20 20 20 20 20 20 20 20 20 21 21 21 21 22 22 22 22 22 22 22 22 22
16 16 16 16 16 18 17 17 18 19 19 19 18 18 18 18 19 19 20 20 19 20 20 21 21 20 20 21 21 21 22 22 22 22 22 22 23 23 22 22 22 22 22 22
16 17 17 18 18 18 17 17 18 18 19 19 19 19 19 19 19 20 20 21 21 22 21 21 21 21 21 21 22 22 23 22 22 22 23 23 23 22 22 22 22 23 22 23
16 17 17 18 19 20 19 17 17 18 19 19 19 19 20 20 20 21 22 22 22 22 22 22 22 22 21 22 22 23 23 23 23 23 23 23 23 22 22 22 23 22 23 23
16 17 18 19 20 22 18 18 18 17 18 20 20 20 20 21 21 22 23 23 23 23 23 23 23 23 23 23 23 23 23 22 23 23 23 23 22 22 23 23 22 23 23 24
17 18 19 20 21 21 19 19 18 18 18 18 20 20 21 21 21 22 23 23 24 23 24 24 24 24 24 24 24 24 24 23 23 24 23 23 23 23 24 23 23 23 24 25
18 19 20 20 21 20 19 19 19 20 19 18 19 20 22 22 23 22 22 23 24 24 24 24 25 25 25 25 25 24 24 24 24 24 24 24 24 24 24 24 24 24 25 25
19 19 19 19 21 20 20 19 19 20 19 19 19 19 21 22 22 23 23 23 24 24 25 25 25 25 24 25 25 25 25 25 25 25 24 24 23 24 24 24 24 24 25 25
19 20 19 19 20 20 20 20 20 20 20 20 20 20 20 21 22 23 23 24 24 24 24 24 24 24 24 25 25 25 25 25 25 25 25 24 24 25 24 24 24 25 25 26
20 20 20 20 20 20 20 20 20 20 20 20 20 20 21 21 22 22 23 24 24 24 24 24 24 24 25 25 25 25 26 26 25 25 25 25 25 26 26 26 26 26 26 27
21 21 21 21 21 21 20 20 21 21 21 20 20 21 22 22 22 23 24 25 24 24 24 24 24 25 25 25 25 25 26 26 26 26 26 26 26 26 26 26 26 27 26 26
22 23 23 22 21 21 21 20 21 22 22 22 22 21 22 23 23 23 24 24 24 24 24 24 24 25 25 25 26 27 27 27 28 27 27 26 26 26 26 26 27 27 27 27
21 22 22 21 21 22 22 21 21 22 22 22 23 23 22 23 24 24 24 24 24 24 24 24 24 24 25 26 27 27 27 27 27 27 27 27 27 27 27 27 27 27 27 28
Wind_Direction
235 235 235 236 235 234 238 242 246 247 248 250 253 254 254 257 261 263 262 261 264 268 274 272 272 279 276 276 280 284 283 286 287 290 289 287 289 291 293 292 290 289 290 290
235 235 236 238 239 239 239 246 248 248 249 250 254 256 258 261 264 265 263 259 259 265 270 272 269 273 275 276 278 283 286 287 290 291 291 292 291 291 291 291 290 290 291 291
236 235 237 238 238 241 242 247 252 252 252 252 255 253 256 262 263 263 261 258 257 263 267 269 271 273 274 275 279 283 286 286 286 287 289 290 291 290 289 290 291 290 290 289
237 238 242 242 241 242 245 247 248 251 252 253 257 255 256 261 261 264 262 260 256 261 265 269 270 272 273 274 277 281 284 286 286 286 286 287 287 288 290 289 288 289 290 290
239 239 243 245 244 245 245 245 246 250 253 253 253 258 257 259 261 264 263 263 260 262 267 271 273 274 273 274 275 279 284 286 285 284 285 286 286 287 288 287 287 288 289 288
240 241 242 242 243 245 246 244 247 251 253 255 255 260 261 260 261 261 263 264 262 262 268 272 274 275 274 275 276 278 282 286 286 287 286 286 287 287 288 288 288 289 289 288
237 236 236 237 238 240 244 246 248 252 254 256 255 257 263 264 262 261 263 263 259 259 265 269 271 274 275 277 279 279 279 281 284 286 286 287 289 286 286 287 286 288 288 288
240 233 237 239 241 239 241 246 251 256 257 256 255 257 261 261 259 261 266 265 261 260 263 266 270 273 277 278 279 280 279 280 282 283 284 286 287 288 288 287 286 286 287 289
247 239 240 240 242 243 245 249 254 260 261 259 259 260 259 259 262 264 266 266 265 263 264 267 270 274 276 276 276 278 279 280 281 281 283 285 285 285 287 287 286 286 286 287
250 246 243 243 244 246 250 255 258 261 266 267 263 261 263 259 263 264 265 267 268 267 267 268 270 272 276 276 277 278 278 279 279 280 281 283 284 284 285 287 288 287 286 287
252 250 247 245 243 246 249 256 261 263 266 268 266 264 267 265 263 264 265 266 267 270 271 270 271 273 276 276 276 279 278 278 279 279 280 283 284 284 285 286 287 287 286 286
256 255 252 249 248 250 252 255 261 264 267 266 266 267 265 265 263 263 265 267 268 270 271 272 274 275 276 278 279 279 278 279 278 278 279 282 283 284 286 286 287 286 287 288
255 257 256 252 252 255 256 259 262 265 266 266 268 269 264 266 265 264 264 266 267 269 271 273 275 276 276 276 277 278 278 278 277 278 280 281 283 284 284 285 286 285 287 289
257 259 260 261 262 261 261 261 263 267 268 268 270 270 267 266 267 266 266 266 267 269 273 275 274 273 274 275 276 277 277 277 277 278 279 281 282 283 283 282 284 285 285 287
256 257 261 263 264 264 268 266 267 268 268 269 269 269 270 266 267 267 268 270 269 273 277 277 276 275 274 276 277 277 276 277 278 279 279 281 282 282 281 281 283 285 286 286
255 256 260 261 264 266 268 271 268 269 269 271 270 270 268 268 267 267 270 272 275 277 278 279 277 277 275 276 277 277 277 278 277 278 279 280 282 281 280 281 283 284 285 286
261 262 261 261 262 265 268 273 273 271 270 273 273 271 270 269 268 269 270 273 277 279 276 275 275 275 274 275 276 277 279 279 278 279 279 279 280 281 281 282 283 284 285 286
265 264 264 265 264 263 269 273 275 276 273 273 274 272 272 272 271 269 270 274 277 276 274 274 274 274 274 274 274 277 279 279 280 281 282 280 280 280 280 281 282 283 284 285
268 268 268 269 269 267 268 273 276 276 276 276 275 273 272 272 272 271 271 274 277 276 274 275 276 275 273 272 275 277 277 278 279 280 281 282 280 279 280 280 281 282 283 285
265 267 269 271 271 272 274 274 275 277 275 277 275 271 271 271 272 273 274 273 275 276 275 276 276 275 273 274 276 276 276 277 278 279 280 282 280 279 280 281 281 281 283 285
262 266 269 272 273 275 277 277 276 276 277 276 276 275 274 274 274 274 275 275 275 276 276 277 276 275 275 275 275 276 275 277 278 278 280 281 279 280 281 281 282 282 283 285
266 268 268 269 271 274 278 277 278 280 280 278 275 276 275 275 275 275 277 278 277 277 277 276 275 274 274 275 275 275 275 275 276 277 278 279 278 280 281 281 282 283 284 285
270 271 272 270 271 275 277 278 279 280 280 279 276 277 279 277 276 277 277 278 278 277 276 275 274 274 275 276 276 274 274 274 276 277 278 278 278 279 280 281 282 284 285 285
271 271 269 270 268 271 276 277 277 277 278 279 276 277 279 279 279 277 278 278 278 277 276 274 273 274 275 276 275 273 273 275 277 277 276 277 278 279 281 281 282 284 284 285
272 273 271 271 269 267 271 276 276 275 276 277 276 276 278 279 279 279 281 280 279 278 276 275 274 274 274 275 275 274 275 276 276 277 277 277 277 278 279 281 283 284 283 283
268 271 273 273 270 268 270 273 277 276 275 276 275 274 275 276 279 281 281 281 280 278 276 275 274 275 276 277 278 278 278 278 277 277 277 277 278 278 279 281 282 283 283 285
Height
5833 5834 5835 5836 5837 5838 5839 5841 5842 5843 5843 5844 5845 5846 5846 5847 5847 5848 5849 5850 5850 5850 5850 5850 5850 5850 5850 5849 5849 5848 5848 5848 5847 5846 5846 5845 5844 5843 5842 5841 5840 5840 5839 5838
5830 5831 5832 5833 5834 5835 5836 5837 5838 5839 5840 5841 5841 5842 5843 5843 5844 5845 5846 5846 5847 5847 5847 5847 5847 5848 5847 5847 5846 5846 5845 5845 5844 5843 5843 5842 5841 5840 5839 5838 5837 5836 5835 5834
5827 5829 5828 5830 5831 5832 5833 5834 5835 5835 5836 5837 5838 5839 5840 5840 5840 5841 5842 5843 5843 5844 5844 5844 5844 5844 5844 5844 5844 5843 5843 5842 5841 5841 5840 5839 5838 5837 5836 5835 5833 5832 5831 5830
5824 5825 5825 5826 5827 5828 5829 5831 5831 5832 5832 5833 5835 5835 5836 5837 5837 5838 5838 5839 5840 5841 5841 5841 5841 5841 5841 5841 5840 5840 5839 5839 5838 5837 5836 5835 5834 5833 5832 5831 5830 5828 5827 5826
5821 5821 5822 5823 5824 5825 5826 5827 5828 5828 5828 5830 5830 5831 5833 5833 5833 5834 5834 5835 5836 5837 5837 5837 5838 5838 5838 5837 5837 5836 5836 5835 5834 5833 5833 5832 5830 5829 5828 5827 5826 5825 5823 5822
5818 5818 5819 5820 5820 5821 5822 5823 5824 5824 5824 5826 5827 5826 5828 5828 5829 5830 5830 5831 5832 5833 5833 5833 5834 5834 5834 5833 5833 5832 5832 5831 5830 5829 5829 5827 5826 5825 5824 5822 5821 5820 5819 5818
5814 5815 5815 5816 5817 5818 5819 5820 5821 5820 5820 5822 5823 5822 5824 5824 5825 5826 5826 5827 5828 5828 5829 5829 5829 5830 5829 5829 5829 5828 5828 5827 5826 5825 5824 5823 5822 5820 5819 5818 5817 5816 5815 5813
5811 5812 5813 5813 5814 5815 5815 5817 5818 5818 5817 5817 5818 5818 5820 5820 5820 5821 5822 5823 5823 5824 5824 5825 5825 5825 5825 5824 5824 5824 5823 5823 5822 5821 5820 5819 5817 5816 5815 5814 5812 5811 5810 5809
5808 5809 5810 5810 5810 5811 5812 5812 5814 5814 5813 5813 5813 5814 5815 5816 5816 5817 5818 5818 5819 5819 5820 5820 5820 5820 5820 5819 5819 5819 5818 5818 5817 5816 5815 5814 5813 5812 5810 5809 5807 5806 5805 5804
5805 5806 5807 5807 5808 5808 5809 5809 5809 5809 5809 5808 5809 5810 5811 5811 5812 5812 5813 5814 5814 5815 5815 5815 5815 5815 5815 5814 5814 5813 5813 5812 5812 5811 5810 5809 5808 5807 5805 5804 5803 5801 5800 5799
5802 5803 5803 5804 5804 5805 5805 5806 5805 5805 5805 5805 5804 5808 5806 5806 5807 5807 5808 5809 5809 5810 5810 5810 5810 5810 5809 5809 5809 5808 5808 5807 5807 5806 5805 5804 5803 5802 5800 5799 5797 5796 5795 5793
5798 5799 5799 5801 5801 5801 5801 5801 5801 5802 5801 5800 5800 5804 5802 5801 5801 5802 5803 5803 5804 5805 5805 5805 5805 5804 5804 5803 5803 5803 5803 5802 5801 5801 5800 5799 5797 5796 5795 5794 5792 5791 5789 5788
5795 5796 5796 5797 5799 5798 5797 5797 5797 5797 5796 5795 5795 5799 5797 5797 5796 5797 5798 5798 5799 5799 5800 5799 5799 5799 5798 5798 5797 5797 5797 5797 5796 5795 5794 5793 5792 5790 5789 5788 5786 5785 5783 5782
5791 5791 5792 5793 5793 5793 5793 5793 5792 5792 5791 5791 5791 5792 5792 5792 5791 5792 5792 5793 5793 5794 5794 5793 5793 5793 5793 5792 5792 5792 5791 5791 5790 5789 5788 5787 5786 5784 5783 5782 5780 5779 5777 5776
5787 5787 5787 5788 5788 5788 5788 5788 5788 5787 5787 5787 5787 5787 5787 5787 5787 5787 5787 5787 5787 5788 5787 5787 5787 5787 5787 5787 5786 5786 5785 5784 5783 5782 5782 5780 5779 5778 5776 5775 5774 5772 5771 5770
5783 5783 5783 5783 5783 5783 5783 5783 5783 5783 5783 5782 5782 5782 5782 5782 5782 5782 5782 5782 5782 5781 5781 5781 5781 5781 5780 5780 5780 5779 5778 5778 5777 5776 5775 5774 5772 5771 5770 5769 5767 5766 5765 5763
5778 5778 5778 5778 5778 5778 5779 5779 5779 5778 5778 5778 5777 5778 5777 5777 5777 5777 5776 5776 5776 5775 5775 5774 5774 5774 5774 5774 5773 5772 5771 5770 5770 5769 5768 5767 5765 5764 5763 5762 5761 5759 5758 5757
5773 5773 5773 5773 5774 5773 5776 5774 5774 5773 5773 5772 5772 5772 5771 5771 5771 5771 5770 5770 5770 5769 5769 5768 5768 5767 5767 5766 5766 5765 5764 5763 5763 5762 5761 5760 5758 5757 5756 5755 5753 5752 5751 5750
5768 5768 5767 5767 5766 5767 5769 5769 5768 5767 5767 5767 5766 5766 5765 5765 5765 5764 5764 5764 5763 5762 5762 5762 5761 5760 5760 5759 5759 5758 5757 5757 5756 5755 5754 5753 5752 5750 5749 5748 5746 5745 5744 5742
5762 5762 5763 5762 5761 5761 5764 5764 5762 5762 5761 5762 5761 5760 5759 5759 5759 5759 5758 5758 5757 5756 5755 5755 5754 5753 5753 5752 5751 5751 5750 5749 5749 5748 5747 5745 5744 5743 5742 5741 5739 5738 5736 5735
5756 5756 5756 5756 5755 5756 5758 5757 5757 5757 5757 5756 5754 5754 5753 5753 5753 5752 5751 5750 5750 5749 5748 5747 5747 5746 5746 5745 5744 5743 5743 5742 5741 5740 5739 5738 5737 5736 5734 5733 5732 5730 5729 5727
5750 5750 5750 5750 5750 5753 5752 5751 5751 5751 5750 5749 5748 5747 5747 5746 5746 5745 5744 5744 5743 5742 5741 5740 5739 5739 5738 5737 5737 5736 5735 5734 5733 5732 5731 5730 5729 5728 5727 5725 5724 5722 5721 5720
5744 5745 5744 5745 5746 5746 5745 5744 5744 5743 5743 5742 5742 5741 5740 5740 5739 5738 5737 5737 5736 5734 5734 5733 5732 5732 5731 5730 5729 5728 5727 5726 5725 5724 5723 5722 5721 5720 5719 5717 5716 5714 5713 5711
5738 5738 5737 5737 5738 5738 5738 5737 5737 5736 5736 5735 5735 5734 5733 5732 5731 5731 5730 5729 5728 5727 5726 5726 5725 5724 5723 5722 5721 5720 5719 5719 5718 5717 5715 5714 5713 5712 5711 5709 5707 5706 5705 5703
5731 5730 5730 5730 5731 5731 5731 5730 5730 5729 5728 5728 5727 5727 5726 5725 5724 5723 5722 5721 5720 5719 5719 5718 5717 5717 5716 5715 5714 5713 5712 5710 5710 5708 5707 5706 5705 5704 5703 5701 5700 5698 5697 5695
5724 5723 5723 5724 5724 5723 5723 5723 5722 5722 5721 5721 5720 5720 5719 5718 5717 5716 5715 5714 5713 5712 5711 5710 5710 5709 5708 5707 5706 5705 5704 5703 5701 5700 5699 5698 5697 5696 5694 5693 5691 5689 5688 5686